Change the Weather History Date:

Wednesday, January 22, 2014

  Actual Average (KTUL) Record (KTUL)
Temperature  
Mean Temperature 34 °F 38 °F  
Max Temperature 49 °F 48 °F 78 °F (1909)
Min Temperature 20 °F 27 °F -16 °F (1930)
Degree Days  
Heating Degree Days 30 27  
Month to date heating degree days 609  
Since 1 July heating degree days 2037  
Moisture  
Dew Point 13 °F    
Average Humidity 42    
Maximum Humidity 66    
Minimum Humidity 25    
Precipitation  
Precipitation 0.00 in 0.05 in 0.83 in (1999)
Month to date precipitation 1.15  
Year to date precipitation 1.15  
Sea Level Pressure  
Sea Level Pressure 30.18 in    
Wind  
Wind Speed 0 mph (North)    
Max Wind Speed 12 mph    
Max Gust Speed 24 mph    
Visibility 10 miles    
Events      
T = Trace of Precipitation, MM = Missing Value Source: NWS Daily Summary

Daily Weather History Graph

Daily Weather History Graph

Search for Another Location

Airport or City:

Trip Planner

Search our weather history database for the weather conditions in past years. The results will help you decide how hot, cold, wet, or windy it might be!

Date:

Astronomy

Jan. 22, 2014 Rise Set
Actual Time 7:32 AM CST 5:40 PM CST
Civil Twilight 7:04 AM CST 6:08 PM CST
Nautical Twilight 6:33 AM CST 6:39 PM CST
Astronomical Twilight 6:02 AM CST 7:10 PM CST
Moon No Moon Rise 10:46 AM CST (1/22)
Length of Visible Light 11h 03m
Length of Day
10h 08m
Waning Gibbous, 65% of the Moon is Illuminated
Jan 22
Waning Gibbous
Jan 23
Last Quarter
Jan 30
New
Feb 6
First Quarter
Feb 14
Full

Hourly Weather History & Observations

Time (CST) Temp. Windchill Dew Point Humidity Pressure Visibility Wind Dir Wind Speed Gust Speed Precip Events Conditions
12:15 AM 26.4 °F - 3.7 °F 38% 30.14 in 10.0 mi Calm Calm - N/A   Clear
12:35 AM 26.4 °F - 4.1 °F 39% 30.14 in 10.0 mi Calm Calm - N/A   Clear
12:55 AM 26.2 °F - 5.0 °F 40% 30.12 in 10.0 mi Calm Calm - N/A   Clear
1:15 AM 25.7 °F - 5.4 °F 42% 30.12 in 10.0 mi Calm Calm - N/A   Clear
1:35 AM 26.1 °F - 5.0 °F 41% 30.11 in 10.0 mi Calm Calm - N/A   Clear
1:55 AM 25.7 °F - 5.7 °F 43% 30.11 in 10.0 mi Calm Calm - N/A   Clear
2:15 AM 26.2 °F - 5.4 °F 41% 30.11 in 10.0 mi Calm Calm - N/A   Clear
2:35 AM 25.3 °F - 5.4 °F 43% 30.12 in 10.0 mi Calm Calm - N/A   Clear
2:55 AM 24.8 °F - 5.9 °F 45% 30.12 in 10.0 mi Calm Calm - N/A   Clear
3:15 AM 25.3 °F - 6.6 °F 45% 30.12 in 10.0 mi Calm Calm - N/A   Clear
3:35 AM 25.2 °F - 5.7 °F 44% 30.11 in 10.0 mi Calm Calm - N/A   Clear
3:55 AM 23.9 °F - 7.0 °F 49% 30.12 in 10.0 mi Calm Calm - N/A   Clear
4:15 AM 23.4 °F - 8.4 °F 53% 30.12 in 10.0 mi Calm Calm - N/A   Clear
4:35 AM 23.4 °F - 8.6 °F 53% 30.13 in 10.0 mi Calm Calm - N/A   Clear
4:55 AM 23.2 °F - 8.2 °F 53% 30.13 in 10.0 mi Calm Calm - N/A   Clear
5:15 AM 22.3 °F - 9.1 °F 57% 30.13 in 10.0 mi Calm Calm - N/A   Clear
5:35 AM 22.1 °F - 9.3 °F 58% 30.13 in 10.0 mi Calm Calm - N/A   Clear
5:55 AM 23.0 °F - 7.5 °F 52% 30.14 in 10.0 mi Calm Calm - N/A   Clear
6:15 AM 22.6 °F - 7.5 °F 52% 30.14 in 10.0 mi Calm Calm - N/A   Clear
6:35 AM 22.5 °F - 9.3 °F 57% 30.14 in 10.0 mi Calm Calm - N/A   Clear
6:55 AM 21.0 °F - 8.2 °F 58% 30.15 in 10.0 mi Calm Calm - N/A   Clear
7:15 AM 21.2 °F - 7.7 °F 56% 30.16 in 10.0 mi Calm Calm - N/A   Clear
7:35 AM 20.7 °F - 8.8 °F 60% 30.17 in 10.0 mi Calm Calm - N/A   Clear
7:55 AM 20.8 °F - 10.0 °F 63% 30.18 in 10.0 mi Calm Calm - N/A   Clear
8:15 AM 22.3 °F - 12.6 °F 66% 30.19 in 10.0 mi Calm Calm - N/A   Clear
8:35 AM 24.8 °F - 11.8 °F 58% 30.20 in 10.0 mi Calm Calm - N/A   Clear
8:55 AM 26.2 °F - 12.9 °F 57% 30.21 in 10.0 mi Calm Calm - N/A   Clear
9:15 AM 28.6 °F - 12.6 °F 51% 30.22 in 10.0 mi Calm Calm - N/A   Clear
9:35 AM 32.2 °F - 12.2 °F 44% 30.22 in 10.0 mi Calm Calm - N/A   Clear
9:55 AM 35.4 °F - 14.4 °F 42% 30.23 in 10.0 mi Calm Calm - N/A   Clear
10:15 AM 38.3 °F - 16.9 °F 42% 30.24 in 10.0 mi Calm Calm - N/A   Clear
10:35 AM 41.0 °F - 17.8 °F 39% 30.25 in 10.0 mi Calm Calm - N/A   Clear
10:55 AM 42.4 °F - 19.0 °F 39% 30.24 in 10.0 mi Calm Calm - N/A   Clear
11:15 AM 43.9 °F - 20.5 °F 39% 30.23 in 10.0 mi Calm Calm - N/A   Clear
11:35 AM 45.1 °F - 20.5 °F 38% 30.22 in 10.0 mi Calm Calm - N/A   Clear
11:55 AM 45.5 °F - 20.1 °F 36% 30.21 in 10.0 mi Calm Calm - N/A   Clear
12:15 PM 46.0 °F - 20.7 °F 37% 30.19 in 10.0 mi Calm Calm - N/A   Clear
12:35 PM 46.8 °F - 20.7 °F 36% 30.18 in 10.0 mi Calm Calm - N/A   Clear
12:55 PM 47.3 °F - 20.1 °F 34% 30.17 in 10.0 mi Calm Calm - N/A   Clear
1:15 PM 46.8 °F - 19.8 °F 34% 30.16 in 10.0 mi Calm Calm - N/A   Clear
1:35 PM 48.2 °F - 19.9 °F 33% 30.15 in 10.0 mi Calm Calm - N/A   Clear
1:55 PM 48.9 °F - 19.4 °F 31% 30.15 in 10.0 mi Calm Calm - N/A   Clear
2:15 PM 49.5 °F - 19.4 °F 31% 30.14 in 10.0 mi Calm Calm - N/A   Clear
2:35 PM 49.6 °F - 19.8 °F 31% 30.14 in 10.0 mi Calm Calm - N/A   Clear
2:55 PM 49.1 °F - 17.8 °F 29% 30.14 in 10.0 mi Calm Calm - N/A   Clear
3:15 PM 49.1 °F - 16.0 °F 27% 30.14 in 10.0 mi Calm Calm - N/A   Clear
3:35 PM 48.6 °F - 14.2 °F 25% 30.14 in 10.0 mi Calm Calm - N/A   Clear
3:55 PM 48.2 °F - 14.5 °F 26% 30.15 in 10.0 mi Calm Calm - N/A   Clear
4:15 PM 47.7 °F - 14.2 °F 26% 30.16 in 10.0 mi Calm Calm - N/A   Clear
4:35 PM 46.0 °F - 14.4 °F 28% 30.16 in 10.0 mi Calm Calm - N/A   Clear
4:55 PM 45.5 °F - 14.4 °F 29% 30.16 in 10.0 mi Calm Calm - N/A   Clear
5:15 PM 44.2 °F - 14.9 °F 31% 30.17 in 10.0 mi Calm Calm - N/A   Clear
5:35 PM 42.8 °F - 14.9 °F 32% 30.18 in 10.0 mi Calm Calm - N/A   Clear
5:55 PM 41.9 °F - 14.9 °F 34% 30.19 in 10.0 mi Calm Calm - N/A   Clear
6:15 PM 40.8 °F - 13.8 °F 33% 30.19 in 10.0 mi Calm Calm - N/A   Clear
6:35 PM 39.7 °F - 12.9 °F 33% 30.21 in 10.0 mi Calm Calm - N/A   Clear
6:55 PM 38.7 °F - 12.2 °F 34% 30.21 in 10.0 mi Calm Calm - N/A   Clear
7:15 PM 37.6 °F - 12.7 °F 36% 30.22 in 10.0 mi Calm Calm - N/A   Clear
7:35 PM 37.4 °F - 13.1 °F 37% 30.22 in 10.0 mi Calm Calm - N/A   Clear
7:55 PM 37.0 °F - 12.2 °F 36% 30.24 in 10.0 mi Calm Calm - N/A   Clear
8:15 PM 36.0 °F - 12.6 °F 38% 30.25 in 10.0 mi Calm Calm - N/A   Clear
8:35 PM 35.6 °F - 12.2 °F 38% 30.26 in 10.0 mi Calm Calm - N/A   Clear
9:55 PM - - - N/A% - - North - - N/A   Unknown
10:15 PM 33.3 °F - 12.6 °F 42% 30.29 in 10.0 mi Calm Calm - N/A   Clear
10:35 PM 33.3 °F - 12.4 °F 42% 30.30 in 10.0 mi Calm Calm - N/A   Clear
10:55 PM 34.0 °F - 12.4 °F 41% 30.31 in 10.0 mi Calm Calm - N/A   Clear
11:15 PM 34.9 °F - 13.5 °F 41% 30.31 in 10.0 mi Calm Calm - N/A   Clear
11:35 PM 36.0 °F - 14.0 °F 41% 30.32 in 10.0 mi Calm Calm - N/A   Clear
11:55 PM 35.1 °F 26.9 °F 17.2 °F 48% 30.33 in 10.0 mi North 11.5 mph 24.2 mph N/A   Clear